Dewpoint
77 77 76 74 73 71 70 66 52 53 50 48 48 46 48 54 54 54 54 55 53 58 59 56 55 56 57 55 62 62 64 60 62 52 51 63 70 72 72 72 72 72 73 73 74 74 74 74 75 75 75 75 74 75 74 74 75 76 74 74 74 76 76 76 76 76 76 76 76 76 76 75 76 76 77 77 77 77 77 77 77 77 77 77 76 76 76 76 76 76 76 75 76 75 75 75 75
78 77 75 74 72 71 67 64 51 45 45 46 47 49 51 53 53 53 54 54 56 61 63 62 63 63 63 63 63 62 61 65 65 65 67 69 71 72 72 72 72 72 73 73 74 74 75 75 76 75 75 74 75 74 73 74 74 74 74 74 75 76 76 76 76 75 75 75 75 75 75 76 76 76 76 77 77 77 77 77 77 77 77 76 76 76 76 76 76 76 76 75 75 75 75 75 75
77 77 74 74 73 71 67 62 45 44 44 43 45 49 52 51 52 53 55 59 61 62 61 61 61 61 61 61 59 60 58 65 66 67 68 71 69 71 73 73 73 73 73 74 75 75 75 75 76 76 76 75 75 74 75 75 75 75 75 75 76 76 76 76 75 75 76 76 76 76 76 76 76 76 75 77 76 77 77 77 77 77 77 76 76 76 76 76 76 76 75 75 75 75 75 75 75
77 76 72 72 68 65 59 55 44 44 44 44 47 50 50 51 55 57 59 60 61 60 59 60 60 62 60 60 62 63 63 64 67 67 67 69 69 72 73 73 74 74 74 75 75 75 75 76 76 76 76 76 77 76 76 76 76 76 76 76 76 76 76 76 76 76 76 76 77 76 76 76 76 76 76 77 77 77 77 76 76 76 77 76 76 76 77 76 75 75 76 75 75 75 75 74 74
75 74 73 69 65 60 56 53 42 44 44 44 48 49 53 56 57 57 58 59 59 59 60 60 60 62 62 61 63 61 63 66 67 68 68 71 72 73 74 74 74 74 75 75 76 76 76 76 77 76 77 77 76 76 76 76 76 76 76 76 76 76 76 75 76 76 76 77 76 76 76 76 76 76 77 76 77 77 77 76 76 76 76 76 76 76 76 75 75 75 75 75 75 75 75 74 74
69 67 69 68 63 63 48 40 41 41 46 45 48 50 55 57 56 56 57 58 59 59 59 60 60 60 61 63 65 64 65 63 67 68 69 71 73 73 74 75 74 74 75 75 76 76 76 77 77 77 77 77 77 77 77 76 76 76 76 76 75 75 76 76 76 76 76 76 76 76 76 76 76 76 76 76 76 76 76 76 76 76 76 76 76 76 75 76 76 75 75 75 75 75 75 75 74
65 63 65 64 63 58 44 37 36 39 42 44 50 52 55 54 56 57 57 57 58 59 60 60 61 61 60 63 65 66 67 67 67 68 70 72 73 74 74 74 74 74 75 75 76 76 76 77 77 77 77 77 77 77 76 76 76 76 76 76 76 76 76 76 76 76 76 76 75 76 76 76 76 76 76 76 76 76 76 76 76 76 76 76 75 76 76 75 75 74 75 74 74 73 73 73 74
68 62 63 57 51 46 40 36 37 42 45 50 52 53 53 55 57 56 56 56 56 57 59 60 62 62 62 65 62 67 68 69 70 71 72 72 73 74 74 74 74 74 74 75 75 76 77 76 77 77 78 77 76 77 77 77 76 76 76 76 76 76 76 76 76 76 75 75 76 76 76 76 76 76 76 76 76 76 76 76 76 76 75 75 75 75 75 74 75 75 74 74 74 73 73 73 73
64 61 58 52 42 42 39 37 38 41 48 50 51 56 58 56 56 55 55 57 59 60 60 60 59 56 61 64 64 67 69 71 71 72 72 73 73 73 73 73 72 73 74 75 75 76 76 76 76 77 77 76 76 76 77 77 77 76 76 76 76 76 76 76 76 76 76 76 76 76 76 76 76 75 75 76 76 76 76 76 75 75 75 75 75 74 74 75 74 74 74 74 73 72 73 73 73
62 59 52 50 45 38 38 39 44 45 48 50 52 55 55 55 55 56 57 57 59 59 60 63 62 60 63 62 64 66 68 71 71 71 72 73 73 73 73 73 73 73 74 75 75 76 76 77 76 77 76 77 76 76 76 77 77 76 77 77 76 76 76 76 76 76 75 75 76 75 75 75 75 75 75 75 75 75 75 75 75 75 74 74 74 74 74 73 73 74 73 74 73 73 73 73 73
57 58 52 44 41 38 39 37 38 44 49 51 52 54 55 56 56 56 58 59 61 62 63 63 62 62 62 64 65 68 69 70 70 70 72 72 73 73 73 73 73 73 74 74 75 76 76 76 77 77 76 76 76 76 76 76 77 77 77 77 76 76 76 76 76 76 76 76 75 75 75 75 75 75 75 74 74 74 74 74 74 74 74 74 74 74 74 73 73 73 74 74 74 73 73 72 73
52 52 51 44 41 38 38 38 41 43 48 51 52 56 56 56 57 58 59 59 61 61 61 62 60 63 63 63 64 67 69 69 70 71 72 72 72 73 73 73 73 74 74 75 76 76 76 76 77 77 76 76 76 76 77 77 77 76 76 76 76 76 76 76 76 76 76 76 76 76 75 75 75 75 75 74 73 74 74 73 73 74 74 74 74 74 74 73 73 73 73 73 74 74 74 73 74
54 49 45 42 41 43 44 41 42 48 49 50 52 55 57 57 56 58 59 61 61 60 60 63 63 63 61 63 66 67 67 69 70 71 72 72 72 72 73 73 73 74 75 76 76 76 76 76 77 77 76 76 76 76 76 77 77 77 76 76 76 76 76 75 75 76 76 76 76 76 76 75 75 75 75 74 74 74 74 73 74 74 74 73 73 74 74 74 73 73 74 74 73 74 74 74 74
55 49 46 43 46 42 41 43 47 46 47 51 54 57 57 56 57 59 60 59 59 59 62 63 63 64 64 65 66 65 67 69 70 71 71 71 72 72 72 73 74 74 75 76 76 76 76 76 76 76 76 76 76 76 77 77 77 77 77 76 76 76 75 75 75 76 76 76 76 76 76 75 75 75 75 75 75 74 74 74 74 73 73 73 73 73 73 74 74 74 74 74 75 74 74 74 74
55 51 48 44 42 42 43 43 45 46 47 51 55 56 56 59 59 59 58 58 60 63 63 64 64 60 59 61 63 65 67 69 70 70 71 71 72 72 73 73 74 74 75 75 76 76 75 76 76 76 76 76 76 76 76 76 76 77 76 76 76 76 76 75 75 75 76 76 76 76 75 75 75 75 75 75 75 74 74 74 74 74 73 73 73 73 73 72 73 73 74 74 75 75 74 75 75
52 45 46 43 40 40 41 42 42 45 45 52 55 55 56 57 59 57 58 60 61 63 62 61 64 58 61 62 63 65 68 69 70 71 72 72 73 73 73 73 74 75 75 75 75 76 76 76 76 76 76 76 76 76 76 76 76 76 76 76 76 76 76 75 75 76 76 76 76 76 76 76 75 75 75 75 74 74 74 74 74 74 73 74 73 73 73 73 72 73 73 73 74 73 74 74 74
43 42 40 43 40 40 40 41 42 43 44 53 54 56 55 56 57 59 61 62 61 60 60 62 62 63 63 64 66 67 69 70 71 72 72 72 72 72 73 73 74 74 74 75 75 75 76 76 76 75 76 75 76 76 76 76 76 77 76 76 76 76 76 76 75 76 76 75 75 75 76 78 76 76 76 76 75 77 77 75 74 74 74 73 73 73 73 73 74 74 74 74 74 75 75 74 75
42 43 41 40 40 40 42 41 42 43 48 52 53 55 55 54 56 58 59 59 59 59 60 62 63 64 65 67 67 68 69 69 70 71 71 71 71 71 72 72 73 72 73 74 74 75 75 75 75 75 75 75 75 76 76 76 77 77 76 76 77 76 76 76 76 76 76 76 75 76 76 77 75 74 75 76 77 77 77 76 73 73 73 73 74 75 75 74 73 73 75 74 74 75 75 74 76
42 42 42 39 40 41 44 41 42 45 49 51 53 54 55 54 57 57 56 57 57 58 59 62 64 66 67 67 68 68 69 69 71 71 70 70 70 70 70 71 72 72 73 74 74 75 75 75 76 75 75 75 75 76 76 76 76 76 76 76 76 76 77 76 76 77 75 75 76 76 77 76 74 74 76 76 78 77 78 76 74 74 74 74 75 75 75 73 72 73 74 74 75 75 74 75 75
42 41 40 40 40 41 45 43 42 47 48 50 53 54 53 56 56 57 55 56 57 57 58 61 63 65 66 67 67 68 68 69 70 70 70 70 70 70 70 71 71 72 72 73 74 75 75 75 75 75 75 75 75 75 75 76 76 76 75 75 76 76 76 77 75 76 75 75 75 75 76 76 76 74 77 77 77 77 76 77 77 76 76 77 77 76 76 74 73 74 75 76 76 77 74 74 74
40 41 40 40 40 40 41 44 43 45 49 52 53 53 54 56 56 55 55 55 56 57 59 59 62 65 66 67 67 67 68 69 70 70 70 70 70 70 70 71 71 72 72 73 74 74 75 75 75 75 75 75 75 75 75 75 75 75 75 75 75 75 75 75 75 75 75 75 75 76 75 76 76 75 74 74 74 74 74 75 75 75 76 75 76 76 75 75 76 76 76 76 76 75 75 74 74
39 40 40 40 40 40 42 44 44 47 50 52 52 53 54 55 55 55 56 54 55 56 58 60 63 65 66 67 67 67 67 68 69 69 70 70 69 69 70 71 71 72 73 73 73 74 75 75 75 75 75 75 75 75 75 76 76 75 75 75 75 75 75 75 75 75 75 75 75 75 77 76 75 75 75 74 74 74 74 74 74 75 75 75 76 75 74 74 74 74 75 75 75 74 74 74 73
33 36 36 38 40 40 44 44 46 49 50 50 51 53 54 53 53 55 56 56 55 57 59 61 64 66 67 68 67 67 67 68 69 69 69 69 69 69 70 70 71 71 72 72 73 74 74 75 75 75 75 75 75 75 75 76 75 75 75 75 75 74 75 74 75 75 75 75 75 76 76 75 75 75 74 74 74 74 74 74 74 74 74 74 75 74 74 74 74 74 74 74 74 74 74 73 73
32 27 34 37 40 41 44 44 46 48 49 50 52 54 53 53 52 55 55 57 58 59 60 62 64 66 67 67 67 67 67 68 68 69 69 69 69 69 70 70 71 71 72 72 73 73 74 74 75 75 75 75 75 75 75 75 75 75 75 76 76 76 76 75 74 75 75 75 75 75 76 75 74 74 74 74 74 74 74 74 74 73 73 73 74 74 74 74 74 74 74 74 74 73 73 73 73
34 29 32 36 40 43 44 44 46 47 48 51 53 52 52 53 53 55 55 58 59 60 62 63 64 66 66 67 67 67 67 68 68 69 69 69 69 70 70 70 71 71 71 72 72 73 74 74 74 74 74 75 75 75 75 75 75 75 75 76 75 76 76 75 75 75 75 75 75 76 76 75 74 74 74 74 74 74 74 74 74 74 74 74 74 73 74 74 73 73 74 74 74 73 72 72 72
26 24 34 39 41 44 44 45 46 47 50 52 52 51 53 55 55 55 57 59 61 62 62 63 64 65 66 66 67 67 67 68 68 68 68 69 69 69 70 70 70 71 71 72 72 73 73 74 74 74 74 74 75 75 75 74 75 75 75 75 75 77 76 75 75 75 75 75 75 75 75 76 75 74 74 74 74 74 74 74 74 73 73 73 73 73 73 73 73 73 73 73 73 72 72 71 72
23 32 38 40 44 46 45 46 47 49 51 52 51 52 53 55 54 53 58 60 62 62 62 63 64 64 65 66 66 67 67 67 68 68 69 69 69 69 70 70 70 70 71 71 72 73 74 73 74 74 74 75 75 74 74 74 75 74 75 75 75 76 76 76 75 75 75 75 75 75 75 76 76 75 74 74 74 74 74 73 72 72 72 72 73 73 73 73 74 73 73 73 72 71 71 70 71
24 41 44 45 46 46 46 47 49 51 51 51 52 52 55 55 55 53 58 61 62 62 62 63 63 64 65 65 66 67 67 68 68 68 68 68 69 69 69 69 70 70 71 71 72 73 73 73 73 74 74 74 75 74 75 74 74 74 75 74 74 75 76 75 75 75 75 74 75 75 75 75 76 75 75 74 74 73 73 72 72 72 71 71 73 73 73 74 73 73 72 72 71 71 71 71 70
36 43 43 46 46 46 47 48 50 51 51 53 54 53 53 53 52 56 59 61 61 62 62 63 63 64 64 65 66 66 67 67 68 68 68 68 69 69 69 70 70 70 71 71 72 73 73 73 73 74 74 74 74 74 74 74 74 74 74 74 74 75 75 75 75 74 74 74 74 75 75 75 75 75 75 75 75 73 72 72 71 72 71 71 72 72 73 73 72 72 71 71 71 70 70 70 71
44 45 45 45 45 45 47 49 50 51 52 53 52 48 50 52 54 58 60 60 61 61 62 62 63 63 64 64 65 66 66 67 67 67 68 68 69 69 69 69 70 70 70 71 72 72 73 73 73 73 74 74 74 74 74 74 74 74 75 74 75 74 74 74 75 74 74 74 74 74 74 74 75 75 75 74 74 73 72 72 71 72 72 72 72 72 72 73 72 71 71 70 70 71 70 71 71
41 45 45 44 43 43 46 49 49 50 53 53 48 45 48 51 54 58 60 60 60 60 61 62 62 63 63 64 64 65 66 66 67 67 68 68 68 69 69 69 70 70 71 71 71 72 73 73 73 73 74 74 75 74 74 74 74 74 74 74 74 74 74 74 74 74 74 74 74 74 74 74 75 74 74 74 73 73 72 71 71 72 72 72 72 72 72 72 71 71 71 70 70 70 70 70 71
44 41 42 44 41 43 46 50 50 49 52 52 47 46 46 50 55 58 60 60 60 60 61 61 62 62 63 64 64 64 65 66 66 67 67 68 68 68 69 69 69 70 70 71 71 72 72 73 74 73 74 74 74 74 74 74 74 74 74 75 74 74 74 73 74 74 74 74 74 73 74 74 75 74 74 74 73 72 71 71 70 70 71 72 72 72 72 71 71 71 71 71 70 70 70 70 71
35 39 41 42 41 43 46 46 48 50 51 51 47 43 51 51 56 58 59 60 60 59 60 61 61 62 63 63 64 64 64 65 65 66 67 67 68 68 68 68 69 69 70 70 71 72 72 73 74 73 73 73 74 74 74 73 74 74 74 74 74 74 73 73 73 74 74 74 74 73 74 74 75 74 74 72 71 71 72 72 71 70 71 72 72 72 72 72 71 71 71 72 71 71 70 70 70
38 37 41 42 41 43 44 46 47 48 50 49 48 48 50 53 56 58 59 59 59 59 59 60 60 61 62 63 63 63 64 64 64 65 66 67 67 68 68 70 69 69 70 70 71 71 72 72 73 73 73 74 74 74 74 73 73 74 74 74 75 74 73 73 74 74 73 73 74 74 74 74 75 74 72 72 71 72 71 71 71 72 72 72 71 71 71 71 72 71 71 71 71 71 70 70 70
37 37 40 39 40 44 43 44 46 47 49 48 47 48 50 53 56 57 58 59 59 58 59 59 60 60 61 62 62 63 63 63 64 64 65 66 66 67 68 68 68 69 69 70 70 71 72 72 73 74 74 74 74 74 74 74 73 73 73 73 73 74 74 74 74 74 74 74 73 73 73 73 73 73 73 72 72 72 72 72 72 72 72 71 70 70 70 71 71 71 71 71 71 71 70 70 70
36 36 39 39 39 42 43 45 47 47 48 47 46 45 49 53 55 56 57 58 58 58 59 59 59 59 60 61 61 62 62 63 64 64 64 64 66 67 67 68 68 68 69 70 71 71 71 72 72 73 74 73 73 73 73 73 73 72 72 73 73 73 74 74 74 74 74 74 74 74 73 73 74 73 73 73 72 73 72 72 72 71 71 71 71 70 70 69 69 70 70 70 69 70 70 70 70
33 32 34 36 39 41 43 45 45 48 48 46 46 46 49 52 55 56 56 57 57 57 57 58 58 58 59 59 60 60 61 62 63 63 63 63 64 66 67 67 67 68 68 69 70 70 71 71 72 72 73 73 73 72 72 72 72 72 72 72 72 72 73 73 74 74 73 73 73 74 74 73 73 73 73 73 72 73 72 71 70 70 70 71 70 70 70 70 69 70 70 71 71 70 69 69 70
29 29 31 30 36 39 42 44 45 48 46 45 47 48 49 52 54 55 56 56 56 56 56 56 57 57 58 58 59 59 60 61 62 62 62 62 63 64 66 66 68 67 68 69 69 70 70 71 71 72 72 72 72 72 72 72 72 72 72 72 72 72 72 74 73 73 73 74 74 74 74 73 73 73 74 73 73 72 72 71 71 70 69 70 70 71 70 71 71 70 70 70 69 70 69 69 69
26 26 28 28 30 37 35 39 44 47 45 44 47 47 48 51 53 55 55 55 56 56 56 56 56 56 57 57 58 58 58 59 60 61 61 61 62 63 65 65 66 67 67 68 69 69 70 70 71 71 72 72 72 72 72 72 72 73 72 72 72 72 72 73 73 74 75 73 73 74 74 73 72 73 74 73 73 72 72 71 71 70 70 71 71 70 69 69 69 69 69 70 68 68 69 69 69
24 28 29 28 31 33 34 36 43 45 44 43 48 46 48 50 53 54 55 55 55 56 55 55 55 55 56 56 57 57 57 58 59 60 60 60 61 63 64 65 66 67 67 67 68 69 69 70 70 71 71 72 72 72 73 73 73 73 73 73 73 72 71 74 70 69 70 70 71 71 72 73 72 72 73 73 73 72 72 72 71 70 70 71 70 69 67 69 68 69 68 69 68 67 65 66 69
24 26 28 30 31 33 35 35 42 42 44 46 46 46 46 48 49 50 53 54 54 54 55 55 55 55 56 56 57 57 57 58 59 60 60 60 61 62 63 64 65 66 66 67 68 68 69 69 70 71 71 71 72 73 73 73 74 73 73 73 73 70 69 68 68 66 66 68 68 69 71 72 72 72 73 73 73 72 71 71 70 70 68 69 69 68 67 68 68 68 67 68 68 67 65 64 67
23 22 25 27 31 32 35 39 40 40 40 44 44 40 41 46 48 49 51 51 52 54 54 54 55 55 56 56 56 57 58 58 59 60 60 60 61 62 63 64 65 65 66 67 68 68 69 69 70 70 71 71 71 72 73 73 73 72 71 71 70 70 69 66 67 66 65 66 66 67 69 70 71 71 71 71 71 71 70 70 69 69 69 70 69 69 68 68 67 68 67 68 66 66 66 65 65
22 24 23 26 30 31 35 38 39 39 39 41 44 39 38 43 46 48 49 50 51 52 52 53 54 56 56 56 56 56 57 57 59 61 61 61 62 62 63 64 64 65 66 67 68 68 69 69 70 70 71 71 71 72 73 73 72 72 71 71 71 70 70 67 65 64 65 65 65 67 68 68 69 69 69 69 70 70 69 69 69 69 69 69 71 68 68 68 67 66 68 67 66 67 66 66 65
23 25 22 22 27 32 35 37 37 39 43 43 43 42 38 38 42 48 49 49 49 50 51 52 53 54 55 57 57 57 57 57 58 61 62 62 63 63 63 64 64 65 66 67 67 68 69 69 70 70 71 71 72 72 73 73 72 72 71 71 71 70 69 69 65 64 64 66 65 65 66 66 67 68 68 68 69 70 69 69 69 69 69 69 71 68 68 68 68 69 70 69 69 69 67 67 66
25 25 21 20 22 29 35 36 36 37 38 39 42 44 38 39 42 48 48 47 48 48 49 50 51 53 55 56 57 57 57 57 58 60 62 63 63 63 64 64 65 65 66 67 67 68 69 69 70 71 71 72 72 72 73 73 73 72 71 71 71 70 69 69 67 66 65 68 64 65 65 65 66 66 67 68 69 70 71 68 68 68 68 69 70 68 67 67 68 68 68 68 68 68 67 68 67
22 22 22 21 25 30 34 34 35 39 36 36 41 40 37 36 42 45 48 47 47 47 48 49 51 52 53 55 57 57 58 58 59 60 62 63 64 64 64 65 65 65 66 68 68 68 69 69 70 71 71 72 72 72 73 73 73 73 71 71 70 69 68 66 66 65 64 65 64 64 65 66 66 66 66 68 69 70 70 69 68 68 68 68 69 67 67 67 66 66 66 66 65 68 67 68 67
21 18 17 21 31 33 42 38 37 36 33 34 40 41 38 34 39 44 45 46 47 47 48 49 50 51 52 54 56 57 58 58 58 60 62 63 64 65 65 65 66 66 67 68 69 69 69 70 70 71 71 72 72 72 73 72 72 72 71 71 70 69 66 65 64 64 64 63 63 63 65 65 65 64 67 67 68 69 68 69 67 67 67 70 70 67 67 67 66 67 66 66 66 67 67 67 67
20 20 20 18 25 31 34 34 37 32 31 35 37 41 39 34 36 42 46 47 47 47 47 48 49 50 51 53 55 56 57 58 58 60 62 63 64 65 66 66 66 67 68 69 69 70 70 70 71 71 71 72 72 73 73 72 72 72 71 71 70 69 66 64 64 63 63 62 63 63 65 65 64 65 66 67 67 67 68 68 68 68 69 70 67 67 66 67 67 67 66 66 66 66 66 67 65
20 23 23 20 24 22 23 30 29 30 29 33 34 39 39 38 37 41 44 46 47 48 47 47 48 49 50 52 54 56 57 58 58 60 62 63 64 65 66 66 67 67 68 69 69 70 70 71 71 71 71 72 72 72 73 73 72 72 71 70 70 68 66 64 63 63 63 63 63 64 64 63 63 65 66 66 66 67 68 67 67 67 68 69 68 66 66 67 67 67 66 66 65 66 66 66 66
18 19 23 20 18 16 16 26 28 28 30 31 32 40 38 39 38 40 41 43 46 47 48 48 48 49 50 51 53 55 56 57 58 59 61 63 64 65 66 67 67 68 69 69 70 70 71 71 71 71 71 72 72 72 72 72 72 72 71 70 69 68 65 64 63 62 63 63 63 63 64 63 63 64 65 66 67 67 68 67 68 67 67 68 68 67 67 67 67 67 66 66 65 66 66 66 67
19 20 18 21 22 19 17 22 23 25 26 29 36 37 37 34 37 40 39 40 43 46 47 48 51 51 51 51 53 54 56 57 59 59 61 62 64 65 66 67 67 68 69 70 70 71 71 71 71 72 71 72 72 72 72 72 72 72 71 70 68 67 65 64 62 63 63 63 64 64 64 63 63 63 65 66 67 67 67 67 67 67 66 67 68 68 68 67 67 67 67 66 66 65 65 67 66
18 19 22 21 18 29 16 22 27 28 28 26 34 36 37 36 39 43 45 42 42 45 46 48 47 50 50 51 52 54 56 57 58 59 60 62 64 65 66 67 67 68 69 70 70 71 71 71 71 72 72 72 72 72 72 72 72 71 70 69 67 66 66 64 63 64 64 64 64 64 63 64 63 63 64 66 66 66 66 66 68 67 67 67 67 68 67 67 66 66 66 67 66 67 65 65 66
19 19 18 19 23 18 33 38 34 29 26 24 34 31 30 31 34 35 42 42 40 42 44 45 46 49 51 51 52 54 56 57 58 59 60 62 63 65 66 67 67 68 68 69 70 71 71 71 71 72 72 72 72 72 72 72 72 71 69 68 66 65 65 63 62 63 63 64 64 64 63 63 63 63 63 66 66 66 66 66 66 67 66 66 66 67 67 67 66 66 66 65 65 65 67 66 66
16 16 17 26 28 26 27 18 26 24 21 24 28 27 27 30 29 42 37 37 37 39 41 42 46 49 50 50 51 53 55 57 59 60 61 62 63 64 65 66 67 68 68 69 70 71 71 71 71 71 72 72 72 72 72 72 71 70 68 66 65 65 64 63 62 63 64 64 64 64 63 63 63 63 64 66 66 66 66 68 66 66 66 66 66 66 66 66 66 66 65 65 65 65 65 66 66
13 15 21 14 21 19 28 25 20 20 20 21 24 28 30 29 31 35 33 36 36 38 40 41 44 47 48 49 51 53 54 56 58 59 61 62 63 64 65 66 67 68 69 69 70 70 71 71 71 71 71 72 72 72 72 72 71 70 68 66 64 64 64 63 63 64 64 63 63 63 63 63 63 64 66 66 66 65 65 66 66 65 65 65 65 65 66 66 66 66 66 65 65 65 65 64 65
18 19 17 26 22 27 23 22 25 23 19 22 20 25 25 32 29 29 28 34 36 36 40 41 42 45 47 48 50 52 54 55 57 59 60 61 62 63 65 65 66 67 68 69 69 70 70 71 71 71 72 72 72 72 72 71 71 70 68 66 64 64 64 63 63 64 63 63 63 63 63 63 63 65 65 65 65 65 65 65 65 65 65 65 65 65 65 65 65 65 65 65 65 65 64 64 64
16 14 17 20 28 24 22 28 24 22 25 22 20 21 27 29 33 30 29 31 36 38 40 42 42 44 46 47 49 52 53 54 56 58 60 61 62 63 64 65 66 67 68 68 68 69 70 70 71 71 71 71 71 71 72 71 70 69 68 66 64 63 63 63 64 64 63 63 63 64 63 63 64 63 64 64 65 65 65 65 64 65 65 65 65 64 65 65 65 65 65 65 65 65 64 64 65
12 12 13 14 17 20 16 16 23 26 23 20 18 17 26 28 39 35 31 32 35 39 40 41 42 43 45 47 49 52 53 54 56 57 59 60 62 63 64 65 66 67 67 67 68 69 69 70 70 71 71 71 71 71 71 71 69 68 67 66 64 63 63 63 63 63 63 63 63 64 63 64 63 63 64 64 64 64 65 64 64 64 64 64 64 64 64 64 64 64 64 65 65 65 64 65 65